Location: Auttagershofen
(48.1940°N, 10.0237°E)
Time: 09:25:52
(UTC+00:00)

Cosmos 1470 Rocket - Pass Details

Date: 18 January 2026
Orbit: 598 x 626 km, 82.5° (Epoch: 15 February)

Event Time Altitude Azimuth Distance (km) Brightness Sun altitude
Rises 05:49:59 0° 187° (S) 2,839 7.1 -12.0°
Reaches altitude 10° 05:52:11 10° 187° (S) 1,938 6.2 -11.6°
Maximum altitude 05:56:28 87° 102° (ESE) 606 3.5 -11.0°
Drops below altitude 10° 06:00:47 10° 10° (N) 1,948 6.0 -10.3°
Sets 06:03:00 0° 10° (N) 2,856 6.9 -9.9°
